When you browse on this site, cookies collect data to enhance your experience and personalize the content and advertising you see.
Visit our Privacy Policy to learn more. By continuing to use the site, you agree to this use of cookies and data.
  • In France
  • List of Countries
  • For 7 days
  • Water Temperature
  • Weather Map
  • Weather Widgets
  • user-avatar
    Login

    Hourly Weather Heidelberg

    Today, 21 February, Friday

    Time Temperature Precipitation Wind Pressure Humidity
    00:00 +4°C° 0.4 mm 7 mps 733 mmHg 70%
    01:00 +3°C° 0 mm 6 mps 734 mmHg 70%
    02:00 +3°C° 0.1 mm 6 mps 735 mmHg 72%
    03:00 +2°C° 0.1 mm 5 mps 737 mmHg 73%
    04:00 +1°C° 0.1 mm 5 mps 738 mmHg 74%
    05:00 +1°C° 0 mm 4 mps 739 mmHg 75%
    06:00 0°C° 0 mm 4 mps 740 mmHg 76%
    07:00 +1°C° 0 mm 3 mps 741 mmHg 77%
    14:00 +6°C° 0 mm 5 mps 742 mmHg 60%
    15:00 +6°C° 0 mm 5 mps 742 mmHg 59%
    16:00 +6°C° 0 mm 5 mps 741 mmHg 59%
    17:00 +5°C° 0 mm 4 mps 741 mmHg 63%
    18:00 +4°C° 0 mm 3 mps 741 mmHg 67%
    19:00 +4°C° 0 mm 3 mps 741 mmHg 71%
    20:00 +3°C° 0 mm 3 mps 742 mmHg 72%
    21:00 +3°C° 0 mm 3 mps 742 mmHg 73%
    22:00 +3°C° 0 mm 3 mps 742 mmHg 74%
    23:00 +3°C° 0 mm 3 mps 741 mmHg 75%

    Tomorrow, 22 February, Saturday

    Time Temperature Precipitation Wind Pressure Humidity
    00:00 +2°C° 0 mm 3 mps 741 mmHg 76%
    01:00 +2°C° 0 mm 3 mps 741 mmHg 77%
    02:00 +2°C° 0 mm 3 mps 741 mmHg 76%
    03:00 +2°C° 0 mm 3 mps 740 mmHg 76%
    04:00 +1°C° 0 mm 3 mps 740 mmHg 75%
    05:00 0°C° 0 mm 4 mps 740 mmHg 75%
    06:00 0°C° 0 mm 4 mps 740 mmHg 74%
    07:00 0°C° 0 mm 4 mps 740 mmHg 74%
    08:00 +1°C° 0 mm 4 mps 740 mmHg 68%
    09:00 +2°C° 0 mm 5 mps 739 mmHg 63%
    10:00 +3°C° 0 mm 5 mps 739 mmHg 58%
    11:00 +4°C° 0 mm 6 mps 739 mmHg 55%
    12:00 +5°C° 0 mm 6 mps 739 mmHg 52%
    13:00 +8°C° 0 mm 7 mps 739 mmHg 50%
    14:00 +8°C° 0 mm 7 mps 738 mmHg 50%
    15:00 +8°C° 0 mm 7 mps 738 mmHg 51%
    16:00 +8°C° 0 mm 7 mps 737 mmHg 52%
    17:00 +8°C° 0 mm 6 mps 738 mmHg 55%
    18:00 +8°C° 0 mm 6 mps 738 mmHg 59%
    19:00 +7°C° 0 mm 6 mps 739 mmHg 63%
    20:00 +7°C° 0 mm 6 mps 739 mmHg 66%
    21:00 +7°C° 0 mm 6 mps 739 mmHg 70%
    22:00 +7°C° 0 mm 6 mps 739 mmHg 73%
    23:00 +6°C° 0 mm 7 mps 739 mmHg 75%

    Day after tomorrow, 23 February, Sunday

    Time Temperature Precipitation Wind Pressure Humidity
    00:00 +6°C° 0 mm 7 mps 740 mmHg 77%
    01:00 +8°C° 0 mm 7 mps 740 mmHg 78%
    02:00 +7°C° 0.1 mm 6 mps 740 mmHg 80%
    03:00 +7°C° 0.1 mm 6 mps 739 mmHg 81%
    04:00 +7°C° 0.1 mm 5 mps 739 mmHg 83%
    05:00 +7°C° 0.5 mm 5 mps 739 mmHg 83%
    06:00 +7°C° 0.5 mm 5 mps 739 mmHg 82%
    07:00 +7°C° 0.5 mm 5 mps 739 mmHg 82%
    08:00 +7°C° 0.5 mm 6 mps 738 mmHg 83%
    09:00 +7°C° 0.5 mm 6 mps 738 mmHg 84%
    10:00 +6°C° 0.5 mm 7 mps 737 mmHg 85%
    11:00 +7°C° 0.1 mm 8 mps 737 mmHg 82%
    12:00 +7°C° 0.1 mm 9 mps 736 mmHg 80%
    13:00 +8°C° 0.1 mm 10 mps 736 mmHg 77%
    14:00 +8°C° 0 mm 10 mps 735 mmHg 77%
    15:00 +9°C° 0 mm 10 mps 735 mmHg 77%
    16:00 +9°C° 0 mm 10 mps 734 mmHg 77%
    17:00 +9°C° 0.1 mm 10 mps 734 mmHg 78%
    18:00 +9°C° 0.1 mm 10 mps 734 mmHg 78%
    19:00 +9°C° 0.1 mm 10 mps 734 mmHg 78%
    20:00 +9°C° 0.2 mm 10 mps 734 mmHg 79%
    21:00 +10°C° 0.2 mm 9 mps 734 mmHg 80%
    22:00 +10°C° 0.2 mm 9 mps 734 mmHg 81%
    23:00 +10°C° 0.6 mm 8 mps 735 mmHg 83%

    24 February, Monday

    Time Temperature Precipitation Wind Pressure Humidity
    00:00 +9°C° 0.6 mm 7 mps 736 mmHg 84%
    01:00 +9°C° 0.6 mm 6 mps 737 mmHg 85%
    02:00 +8°C° 0.8 mm 5 mps 737 mmHg 84%
    03:00 +7°C° 0.8 mm 5 mps 738 mmHg 82%
    04:00 +6°C° 0.8 mm 4 mps 738 mmHg 80%
    05:00 +5°C° 0.3 mm 3 mps 738 mmHg 80%
    06:00 +6°C° 0.3 mm 2 mps 739 mmHg 80%
    07:00 +6°C° 0.3 mm 1 mps 739 mmHg 80%
    08:00 +6°C° 0.1 mm 1 mps 739 mmHg 80%
    09:00 +5°C° 0.1 mm 2 mps 739 mmHg 81%
    10:00 +5°C° 0.1 mm 2 mps 738 mmHg 82%
    11:00 +6°C° 0 mm 2 mps 738 mmHg 83%
    12:00 +6°C° 0 mm 2 mps 737 mmHg 84%
    13:00 +6°C° 0 mm 2 mps 737 mmHg 85%
    14:00 +8°C° 0 mm 2 mps 736 mmHg 85%
    15:00 +9°C° 0 mm 3 mps 735 mmHg 86%
    16:00 +10°C° 0 mm 3 mps 734 mmHg 86%
    17:00 +10°C° 0 mm 3 mps 734 mmHg 86%
    18:00 +10°C° 0 mm 3 mps 733 mmHg 87%
    19:00 +10°C° 0 mm 3 mps 733 mmHg 87%
    20:00 +8°C° 0 mm 4 mps 732 mmHg 87%
    21:00 +8°C° 0 mm 4 mps 732 mmHg 86%
    22:00 +7°C° 0 mm 4 mps 732 mmHg 86%
    23:00 +7°C° 0 mm 4 mps 732 mmHg 86%

    25 February, Tuesday

    Time Temperature Precipitation Wind Pressure Humidity
    00:00 +7°C° 0 mm 5 mps 731 mmHg 87%
    01:00 +7°C° 0 mm 5 mps 731 mmHg 87%
    02:00 +7°C° 0 mm 5 mps 731 mmHg 86%
    03:00 +7°C° 0 mm 5 mps 730 mmHg 85%
    04:00 +7°C° 0 mm 5 mps 730 mmHg 83%
    05:00 +7°C° 0 mm 5 mps 729 mmHg 83%
    06:00 +7°C° 0 mm 5 mps 729 mmHg 83%
    07:00 +6°C° 0 mm 5 mps 729 mmHg 83%
    08:00 +6°C° 0.4 mm 5 mps 728 mmHg 83%
    09:00 +5°C° 0.4 mm 6 mps 728 mmHg 83%
    10:00 +5°C° 0.4 mm 6 mps 728 mmHg 83%
    11:00 +5°C° 0.3 mm 6 mps 728 mmHg 83%
    12:00 +5°C° 0.3 mm 6 mps 728 mmHg 83%
    13:00 +5°C° 0.3 mm 6 mps 727 mmHg 84%
    14:00 +5°C° 0.3 mm 6 mps 727 mmHg 83%
    15:00 +7°C° 0.3 mm 6 mps 727 mmHg 82%
    16:00 +7°C° 0.3 mm 6 mps 726 mmHg 81%
    17:00 +6°C° 0.2 mm 5 mps 726 mmHg 79%
    18:00 +6°C° 0.2 mm 5 mps 726 mmHg 76%
    19:00 +5°C° 0.2 mm 5 mps 726 mmHg 73%
    20:00 +5°C° 0 mm 5 mps 725 mmHg 74%
    21:00 +3°C° 0 mm 5 mps 725 mmHg 75%
    22:00 +2°C° 0 mm 5 mps 725 mmHg 75%
    23:00 +2°C° 0 mm 6 mps 724 mmHg 74%

    26 February, Wednesday

    Time Temperature Precipitation Wind Pressure Humidity
    00:00 +2°C° 0 mm 6 mps 724 mmHg 73%
    01:00 +2°C° 0 mm 7 mps 723 mmHg 71%
    02:00 +2°C° 0.2 mm 7 mps 723 mmHg 71%
    03:00 0°C° 0.2 mm 7 mps 723 mmHg 70%
    04:00 0°C° 0.2 mm 7 mps 723 mmHg 70%
    05:00 +1°C° 1.2 mm 6 mps 723 mmHg 76%
    06:00 -1°C° 1.2 mm 6 mps 722 mmHg 83%
    07:00 -2°C° 1.2 mm 6 mps 722 mmHg 89%
    08:00 -1°C° 0.4 mm 7 mps 722 mmHg 80%
    09:00 -1°C° 0.4 mm 8 mps 723 mmHg 70%
    10:00 -1°C° 0.4 mm 9 mps 723 mmHg 61%
    11:00 -1°C° 0.1 mm 9 mps 724 mmHg 61%
    12:00 0°C° 0.1 mm 9 mps 725 mmHg 62%
    13:00 0°C° 0.1 mm 9 mps 725 mmHg 62%
    14:00 0°C° 0.3 mm 9 mps 725 mmHg 61%
    15:00 0°C° 0.3 mm 8 mps 725 mmHg 61%
    16:00 +2°C° 0.3 mm 7 mps 725 mmHg 60%
    17:00 0°C° 0.1 mm 7 mps 725 mmHg 65%
    18:00 -1°C° 0.1 mm 6 mps 726 mmHg 69%
    19:00 0°C° 0.1 mm 5 mps 726 mmHg 73%
    20:00 -1°C° 0.1 mm 5 mps 727 mmHg 74%
    21:00 -1°C° 0.1 mm 5 mps 727 mmHg 74%
    22:00 -1°C° 0.1 mm 5 mps 728 mmHg 75%
    23:00 -1°C° 0.1 mm 5 mps 728 mmHg 75%
    Show more